Home > Weather > Surat > Past weeks

Flag for India Weather for the Past 2 Weeks in Surat, Gujarat, India

Now
95 °F

Clear.


Feels Like: 96 °F
Forecast: 81 / 95 °F
Wind: 8 mph from Southwest

Location: Ahmadabad Airport

Current Time: Apr 29, 2016 at 10:19:17 PM

Latest Report: Apr 29, 2016 at 10:00 PM


Visibility: 2 mi

Pressure: 29.74 "Hg

Humidity: 34%

Dew Point: 63 °F

Location of SuratLocation

Historic Weather in Surat — Graph

°F

Surat Temperature Yesterday

Maximum temperature yesterday: 111 °F (at 3:00 PM)
Minimum temperature yesterday: 79 °F (at 6:00 AM)
Average temperature yesterday: 96 °F

High & Low Weather Summary for the Past Weeks

 TemperatureHumidityPressure
High113 °F (Apr 29, 2:30 PM)74% (Apr 23, 6:30 AM)29.89 "Hg (Apr 23, 6:30 AM)
Low77 °F (Apr 18, 6:00 AM)9% (Apr 29, 3:30 PM)29.59 "Hg (Apr 23, 5:00 PM)
Average92 °F37%29.74 "Hg
* Reported Apr 14 9:00 PM — Apr 29 9:00 PM, Surat, Weather by CustomWeather, © 2016

Note: Actual official high and low records may vary slightly from our data, if they occured in-between our weather recording intervals... More about our weather records

Advertising

Surat Weather History for the Previous 24 Hours

Scroll right to see more
 ConditionsComfort  
Time TempWeatherWind HumidityBarometerVisibility
9:00 PM
Fri, Apr 29
97 °FClear.8 mph32%29.71 "Hg2 mi
8:30 PM97 °FClear.7 mph42%29.71 "Hg2 mi
8:00 PM100 °FClear.No wind16%29.68 "Hg2 mi
7:30 PM100 °FClear.No wind16%29.68 "Hg2 mi
7:00 PM106 °FPassing clouds.2 mph13%29.65 "Hg3 mi
6:00 PM111 °FClear.6 mph11%29.65 "Hg4 mi
5:30 PM113 °FClear.5 mph10%29.62 "Hg4 mi
5:00 PM113 °FClear.6 mph11%29.62 "Hg4 mi
4:30 PM113 °FClear.6 mph11%29.62 "Hg4 mi
4:00 PM113 °FClear.5 mph10%29.65 "Hg4 mi
3:30 PM113 °FClear.9 mph9%29.65 "Hg4 mi
3:00 PM113 °FClear.7 mph12%29.65 "Hg4 mi
2:30 PM113 °FClear.7 mph12%29.68 "Hg4 mi
2:00 PM111 °FClear.8 mph12%29.71 "Hg4 mi
1:30 PM109 °FClear.6 mph14%29.71 "Hg4 mi
1:00 PM109 °FClear.7 mph16%29.71 "Hg4 mi
12:30 PM108 °FClear.8 mph19%29.74 "Hg4 mi
12:00 PM104 °FClear.8 mph24%29.77 "Hg4 mi
11:00 AM100 °FClear.6 mph33%29.77 "Hg3 mi
10:30 AM99 °FClear.7 mph37%29.77 "Hg2 mi
10:00 AM95 °FClear.6 mph47%29.77 "Hg2 mi
9:30 AM93 °FClear.6 mph49%29.80 "Hg2 mi
9:00 AM91 °FClear.6 mph49%29.77 "Hg2 mi
8:00 AM86 °FClear.8 mph59%29.77 "Hg2 mi
7:30 AM86 °FClear.6 mph59%29.74 "Hg2 mi
7:00 AM84 °FClear.5 mph58%29.74 "Hg2 mi
6:30 AM84 °FClear.3 mph55%29.74 "Hg2 mi
6:00 AM84 °FClear.6 mph55%29.71 "Hg2 mi
5:30 AM84 °FClear.5 mph51%29.71 "Hg2 mi
5:00 AM86 °FClear.3 mph43%29.71 "Hg2 mi
4:30 AM86 °FClear.3 mph38%29.71 "Hg2 mi
4:00 AM84 °FClear.5 mph37%29.68 "Hg2 mi
3:30 AM84 °FClear.6 mph35%29.68 "Hg2 mi
2:30 AM86 °FClear.7 mph35%29.68 "Hg2 mi
2:00 AM90 °FClear.7 mph29%29.68 "Hg2 mi
1:30 AM90 °FClear.6 mph31%29.68 "Hg2 mi
1:00 AM90 °FClear.6 mph29%29.71 "Hg2 mi
12:30 AM91 °FClear.9 mph28%29.71 "Hg2 mi
12:00 AM91 °FClear.6 mph26%29.71 "Hg2 mi
11:30 PM
Thu, Apr 28
91 °FClear.5 mph24%29.71 "Hg2 mi
11:00 PM95 °FClear.8 mph22%29.71 "Hg2 mi
10:30 PM95 °FClear.6 mph22%29.71 "Hg2 mi
10:00 PM97 °FClear.8 mph22%29.71 "Hg2 mi
Weather by CustomWeather, © 2016

See weather overviewHow to use our weather pages